EN

Hourly Weather Mordovskaya Bagana

Today, 24 October, Saturday

Time Temperature Precipitation Wind Pressure Humidity
00:00 +5°C° 0.1 mm 4 mps 740 mmHg 97%
01:00 +5°C° 0.2 mm 4 mps 740 mmHg 97%
02:00 +6°C° 0.2 mm 4 mps 739 mmHg 97%
03:00 +6°C° 0.2 mm 5 mps 739 mmHg 97%
04:00 +7°C° 0.9 mm 5 mps 738 mmHg 96%
05:00 +7°C° 0.9 mm 5 mps 737 mmHg 96%
06:00 +8°C° 0.9 mm 6 mps 737 mmHg 95%
07:00 +8°C° 0 mm 6 mps 737 mmHg 92%
08:00 +9°C° 0 mm 7 mps 737 mmHg 90%
09:00 +9°C° 0 mm 7 mps 738 mmHg 87%
10:00 +9°C° 0.1 mm 7 mps 738 mmHg 85%
11:00 +10°C° 0.1 mm 7 mps 738 mmHg 83%
12:00 +10°C° 0.1 mm 7 mps 738 mmHg 81%
13:00 +9°C° 0.1 mm 6 mps 739 mmHg 81%
14:00 +9°C° 0.1 mm 5 mps 740 mmHg 81%
15:00 +9°C° 0.1 mm 5 mps 740 mmHg 81%
16:00 +9°C° 0.1 mm 5 mps 740 mmHg 82%
17:00 +8°C° 0.1 mm 4 mps 741 mmHg 83%
18:00 +8°C° 0.1 mm 4 mps 741 mmHg 85%
19:00 +8°C° 0.1 mm 4 mps 742 mmHg 86%
20:00 +8°C° 0.1 mm 4 mps 742 mmHg 87%
21:00 +7°C° 0.1 mm 4 mps 742 mmHg 88%
22:00 +7°C° 0 mm 4 mps 743 mmHg 88%
23:00 +6°C° 0 mm 4 mps 743 mmHg 89%

Tomorrow, 25 October, Sunday

Time Temperature Precipitation Wind Pressure Humidity
00:00 +7°C° 0 mm 3 mps 743 mmHg 89%
01:00 +7°C° 0 mm 3 mps 743 mmHg 90%
02:00 +6°C° 0 mm 2 mps 743 mmHg 90%
03:00 +6°C° 0 mm 2 mps 743 mmHg 90%
04:00 +6°C° 0 mm 2 mps 743 mmHg 90%
05:00 +6°C° 0 mm 2 mps 743 mmHg 91%
06:00 +7°C° 0 mm 1 mps 743 mmHg 91%
07:00 +7°C° 0 mm 2 mps 743 mmHg 88%
08:00 +7°C° 0 mm 2 mps 743 mmHg 86%
09:00 +7°C° 0 mm 2 mps 743 mmHg 83%
10:00 +9°C° 0 mm 1 mps 743 mmHg 80%
11:00 +9°C° 0 mm 1 mps 743 mmHg 78%
12:00 +9°C° 0 mm 1 mps 742 mmHg 75%
13:00 +8°C° 0.6 mm 2 mps 742 mmHg 80%
14:00 +7°C° 0.6 mm 2 mps 742 mmHg 85%
15:00 +5°C° 0.6 mm 3 mps 742 mmHg 90%
16:00 +5°C° 0.4 mm 3 mps 742 mmHg 90%
17:00 +4°C° 0.4 mm 3 mps 742 mmHg 89%
18:00 +4°C° 0.4 mm 3 mps 742 mmHg 89%
19:00 +4°C° 0 mm 4 mps 742 mmHg 86%
20:00 +3°C° 0 mm 4 mps 743 mmHg 84%
21:00 +2°C° 0 mm 5 mps 743 mmHg 82%
22:00 +1°C° 0 mm 5 mps 743 mmHg 81%
23:00 +1°C° 0 mm 5 mps 744 mmHg 81%

Day after tomorrow, 26 October, Monday

Time Temperature Precipitation Wind Pressure Humidity
00:00 0°C° 0 mm 5 mps 744 mmHg 80%
01:00 0°C° 0 mm 5 mps 745 mmHg 82%
02:00 -1°C° 0 mm 5 mps 745 mmHg 83%
03:00 -1°C° 0 mm 5 mps 746 mmHg 84%
04:00 -1°C° 0 mm 5 mps 746 mmHg 83%
05:00 -1°C° 0 mm 5 mps 746 mmHg 83%
06:00 -1°C° 0 mm 5 mps 747 mmHg 82%
07:00 -2°C° 0 mm 6 mps 747 mmHg 80%
08:00 -2°C° 0 mm 6 mps 748 mmHg 79%
09:00 -1°C° 0 mm 6 mps 748 mmHg 78%
10:00 -1°C° 0 mm 6 mps 748 mmHg 75%
11:00 -1°C° 0 mm 7 mps 748 mmHg 73%
12:00 0°C° 0 mm 7 mps 749 mmHg 71%
13:00 -1°C° 0.1 mm 7 mps 749 mmHg 73%
14:00 -1°C° 0.1 mm 7 mps 749 mmHg 75%
15:00 -2°C° 0.1 mm 7 mps 750 mmHg 77%
16:00 -2°C° 0 mm 7 mps 750 mmHg 75%
17:00 -2°C° 0 mm 7 mps 751 mmHg 73%
18:00 -2°C° 0 mm 7 mps 752 mmHg 71%
19:00 -3°C° 0 mm 6 mps 752 mmHg 72%
20:00 -3°C° 0 mm 6 mps 753 mmHg 74%
21:00 -4°C° 0 mm 5 mps 754 mmHg 75%
22:00 -4°C° 0 mm 5 mps 754 mmHg 75%
23:00 -4°C° 0 mm 5 mps 754 mmHg 74%

, 27 October, Tuesday

Time Temperature Precipitation Wind Pressure Humidity
00:00 -4°C° 0 mm 5 mps 755 mmHg 74%
01:00 -4°C° 0 mm 5 mps 755 mmHg 74%
02:00 -3°C° 0 mm 4 mps 755 mmHg 75%
03:00 -3°C° 0 mm 4 mps 756 mmHg 76%
04:00 -3°C° 0 mm 4 mps 756 mmHg 77%
05:00 -3°C° 0 mm 4 mps 757 mmHg 78%
06:00 -5°C° 0 mm 5 mps 757 mmHg 79%
07:00 -4°C° 0 mm 5 mps 757 mmHg 76%
08:00 -4°C° 0 mm 5 mps 758 mmHg 74%
09:00 -4°C° 0 mm 5 mps 758 mmHg 72%
10:00 -2°C° 0 mm 4 mps 758 mmHg 69%
11:00 -1°C° 0 mm 4 mps 759 mmHg 67%
12:00 -1°C° 0 mm 4 mps 759 mmHg 65%
13:00 -1°C° 0 mm 4 mps 759 mmHg 66%
14:00 0°C° 0 mm 3 mps 759 mmHg 67%
15:00 0°C° 0 mm 3 mps 759 mmHg 68%
16:00 0°C° 0 mm 3 mps 760 mmHg 71%
17:00 -1°C° 0 mm 3 mps 760 mmHg 75%
18:00 -2°C° 0 mm 2 mps 760 mmHg 78%
19:00 -2°C° 0 mm 2 mps 760 mmHg 79%
20:00 0°C° 0 mm 1 mps 761 mmHg 79%
21:00 0°C° 0 mm 1 mps 761 mmHg 79%
22:00 0°C° 0 mm 1 mps 761 mmHg 79%
23:00 0°C° 0 mm 1 mps 761 mmHg 79%

27 October, Tuesday

Time Temperature Precipitation Wind Pressure Humidity
00:00 -4°C° 0 mm 5 mps 755 mmHg 74%
01:00 -4°C° 0 mm 5 mps 755 mmHg 74%
02:00 -3°C° 0 mm 4 mps 755 mmHg 75%
03:00 -3°C° 0 mm 4 mps 756 mmHg 76%
04:00 -3°C° 0 mm 4 mps 756 mmHg 77%
05:00 -3°C° 0 mm 4 mps 757 mmHg 78%
06:00 -5°C° 0 mm 5 mps 757 mmHg 79%
07:00 -4°C° 0 mm 5 mps 757 mmHg 76%
08:00 -4°C° 0 mm 5 mps 758 mmHg 74%
09:00 -4°C° 0 mm 5 mps 758 mmHg 72%
10:00 -2°C° 0 mm 4 mps 758 mmHg 69%
11:00 -1°C° 0 mm 4 mps 759 mmHg 67%
12:00 -1°C° 0 mm 4 mps 759 mmHg 65%
13:00 -1°C° 0 mm 4 mps 759 mmHg 66%
14:00 0°C° 0 mm 3 mps 759 mmHg 67%
15:00 0°C° 0 mm 3 mps 759 mmHg 68%
16:00 0°C° 0 mm 3 mps 760 mmHg 71%
17:00 -1°C° 0 mm 3 mps 760 mmHg 75%
18:00 -2°C° 0 mm 2 mps 760 mmHg 78%
19:00 -2°C° 0 mm 2 mps 760 mmHg 79%
20:00 0°C° 0 mm 1 mps 761 mmHg 79%
21:00 0°C° 0 mm 1 mps 761 mmHg 79%
22:00 0°C° 0 mm 1 mps 761 mmHg 79%
23:00 0°C° 0 mm 1 mps 761 mmHg 79%

28 October, Wednesday

Time Temperature Precipitation Wind Pressure Humidity
00:00 -1°C° 0 mm 0 mps 761 mmHg 79%
01:00 -1°C° 0 mm 0 mps 761 mmHg 79%
02:00 0°C° 0 mm 1 mps 761 mmHg 78%
03:00 0°C° 0 mm 1 mps 761 mmHg 78%
04:00 0°C° 0 mm 1 mps 762 mmHg 78%
05:00 0°C° 0 mm 1 mps 762 mmHg 79%
06:00 0°C° 0 mm 1 mps 762 mmHg 79%
07:00 0°C° 0 mm 1 mps 762 mmHg 75%
08:00 -1°C° 0 mm 2 mps 762 mmHg 72%
09:00 +1°C° 0 mm 2 mps 762 mmHg 68%
10:00 +2°C° 0 mm 2 mps 762 mmHg 65%
11:00 +3°C° 0 mm 2 mps 762 mmHg 61%
12:00 +3°C° 0 mm 2 mps 762 mmHg 57%
13:00 +3°C° 0 mm 2 mps 762 mmHg 60%
14:00 +3°C° 0 mm 2 mps 762 mmHg 63%
15:00 +2°C° 0 mm 2 mps 762 mmHg 66%
16:00 +2°C° 0 mm 2 mps 762 mmHg 70%
17:00 0°C° 0 mm 3 mps 762 mmHg 73%
18:00 -1°C° 0 mm 3 mps 762 mmHg 77%
19:00 -1°C° 0 mm 3 mps 762 mmHg 76%
20:00 -1°C° 0 mm 3 mps 762 mmHg 76%
21:00 -1°C° 0 mm 3 mps 762 mmHg 75%
22:00 -1°C° 0 mm 3 mps 762 mmHg 75%
23:00 -1°C° 0 mm 3 mps 762 mmHg 75%

29 October, Thursday

Time Temperature Precipitation Wind Pressure Humidity
00:00 -1°C° 0 mm 3 mps 762 mmHg 75%
01:00 -1°C° 0 mm 3 mps 762 mmHg 75%
02:00 -1°C° 0 mm 3 mps 762 mmHg 75%
03:00 -2°C° 0 mm 4 mps 762 mmHg 75%
04:00 -2°C° 0 mm 4 mps 762 mmHg 76%
05:00 -2°C° 0 mm 4 mps 762 mmHg 76%
06:00 -2°C° 0 mm 4 mps 762 mmHg 76%
07:00 -2°C° 0 mm 4 mps 762 mmHg 73%
08:00 -1°C° 0 mm 4 mps 762 mmHg 69%
09:00 0°C° 0 mm 4 mps 762 mmHg 65%
10:00 +1°C° 0 mm 4 mps 762 mmHg 63%
11:00 +3°C° 0 mm 4 mps 762 mmHg 60%
12:00 +4°C° 0 mm 4 mps 762 mmHg 58%
13:00 +3°C° 0 mm 4 mps 762 mmHg 61%
14:00 +3°C° 0 mm 3 mps 762 mmHg 64%
15:00 +3°C° 0 mm 3 mps 762 mmHg 67%
16:00 +2°C° 0 mm 3 mps 762 mmHg 70%
17:00 +1°C° 0 mm 3 mps 762 mmHg 73%
18:00 -1°C° 0 mm 4 mps 762 mmHg 76%
19:00 -1°C° 0 mm 4 mps 762 mmHg 76%
20:00 -1°C° 0 mm 4 mps 762 mmHg 76%
21:00 -1°C° 0 mm 4 mps 762 mmHg 76%
22:00 -1°C° 0 mm 4 mps 762 mmHg 76%
23:00 -1°C° 0 mm 4 mps 762 mmHg 76%
Show more

We Need Your Consent

Meteoprog and our Service Providers may store and access personal data such as cookies, device identifiers or other similar technologies on your device and process such data to personalise content and ads, as well as provide social media features and to analyse the traffic.

  • Store and/or access information on your device

    Cookies, device identifiers or other information can be stored or accessed on your device for the purposes indicated above.

  • Personalised ads and content, ad and content measurement, audience insights, and products development

    Ads and content can be personalised based on a profile. More data can be added to better personalise ads and content. Ad and content performance can be measured. Insights about the audience who saw the ads and content can be derived. Such data can be used to develop or improve user’s experience, systems and software.

By clicking ‘I Agree’ you will allow the use of indicated cookies, device identifiers, web beacons or other similar technologies. Your settings can be changed in the browser on your device.

For certain purposes, legitimate interests may be relied on, rather than consent. You can read more about this in our Privacy and Cookie Policy.